When you browse on this site, cookies collect data to enhance your experience and personalize the content and advertising you see.
Visit our Privacy Policy to learn more. By continuing to use the site, you agree to this use of cookies and data.
  • In Austria
  • List of Countries
  • For 7 days
  • Water Temperature
  • Weather Map
  • News
  • Weather Widgets
  • user-avatar
    Login

    Hourly Weather Vila Real

    Today, 25 May, Monday

    Time Temperature Precipitation Wind Pressure Humidity
    00:00 +20°C° 0 mm 1 mps 726 mmHg 73%
    01:00 +20°C° 0 mm 1 mps 726 mmHg 75%
    02:00 +19°C° 0 mm 1 mps 726 mmHg 77%
    03:00 +19°C° 0 mm 1 mps 726 mmHg 77%
    04:00 +19°C° 0 mm 1 mps 726 mmHg 77%
    05:00 +19°C° 0 mm 1 mps 726 mmHg 78%
    06:00 +21°C° 0 mm 1 mps 726 mmHg 69%
    07:00 +24°C° 0 mm 1 mps 727 mmHg 60%
    08:00 +26°C° 0 mm 1 mps 727 mmHg 51%
    09:00 +27°C° 0 mm 1 mps 727 mmHg 47%
    10:00 +29°C° 0 mm 1 mps 727 mmHg 42%
    11:00 +30°C° 0 mm 2 mps 726 mmHg 38%
    12:00 +31°C° 0 mm 2 mps 726 mmHg 36%
    13:00 +31°C° 0 mm 2 mps 726 mmHg 33%
    14:00 +32°C° 0 mm 2 mps 726 mmHg 31%
    15:00 +31°C° 0 mm 2 mps 726 mmHg 35%
    16:00 +30°C° 0 mm 2 mps 725 mmHg 38%
    17:00 +30°C° 0 mm 2 mps 725 mmHg 42%
    18:00 +28°C° 0 mm 3 mps 725 mmHg 46%
    19:00 +26°C° 0 mm 3 mps 726 mmHg 50%
    20:00 +24°C° 0 mm 3 mps 726 mmHg 55%
    21:00 +21°C° 0 mm 3 mps 726 mmHg 54%
    22:00 +20°C° 0 mm 3 mps 726 mmHg 54%
    23:00 +19°C° 0 mm 3 mps 726 mmHg 53%

    Tomorrow, 26 May, Tuesday

    Time Temperature Precipitation Wind Pressure Humidity
    00:00 +18°C° 0 mm 3 mps 726 mmHg 51%
    01:00 +18°C° 0 mm 3 mps 726 mmHg 48%
    02:00 +17°C° 0 mm 3 mps 726 mmHg 45%
    03:00 +17°C° 0 mm 3 mps 726 mmHg 48%
    04:00 +16°C° 0 mm 3 mps 726 mmHg 51%
    05:00 +16°C° 0 mm 2 mps 726 mmHg 54%
    06:00 +18°C° 0 mm 3 mps 726 mmHg 52%
    07:00 +19°C° 0 mm 4 mps 726 mmHg 49%
    08:00 +21°C° 0 mm 4 mps 727 mmHg 47%
    09:00 +23°C° 0 mm 4 mps 726 mmHg 45%
    10:00 +26°C° 0 mm 4 mps 726 mmHg 44%
    11:00 +28°C° 0 mm 5 mps 726 mmHg 42%
    12:00 +29°C° 0 mm 4 mps 726 mmHg 40%
    13:00 +30°C° 0 mm 4 mps 726 mmHg 38%
    14:00 +30°C° 0 mm 4 mps 725 mmHg 36%
    15:00 +30°C° 0 mm 4 mps 725 mmHg 39%
    16:00 +30°C° 0 mm 4 mps 725 mmHg 42%
    17:00 +29°C° 0 mm 4 mps 724 mmHg 44%
    18:00 +27°C° 0 mm 4 mps 725 mmHg 50%
    19:00 +26°C° 0 mm 4 mps 725 mmHg 56%
    20:00 +23°C° 0 mm 4 mps 725 mmHg 62%
    21:00 +22°C° 0 mm 4 mps 725 mmHg 65%
    22:00 +21°C° 0 mm 3 mps 725 mmHg 67%
    23:00 +20°C° 0 mm 3 mps 725 mmHg 70%

    Day after tomorrow, 27 May, Wednesday

    Time Temperature Precipitation Wind Pressure Humidity
    00:00 +19°C° 0 mm 3 mps 725 mmHg 70%
    01:00 +18°C° 0 mm 3 mps 725 mmHg 70%
    02:00 +18°C° 0 mm 2 mps 725 mmHg 70%
    03:00 +18°C° 0 mm 2 mps 725 mmHg 68%
    04:00 +18°C° 0 mm 2 mps 725 mmHg 67%
    05:00 +17°C° 0 mm 2 mps 725 mmHg 65%
    06:00 +19°C° 0 mm 2 mps 725 mmHg 60%
    07:00 +21°C° 0 mm 2 mps 725 mmHg 56%
    08:00 +24°C° 0 mm 2 mps 725 mmHg 51%
    09:00 +26°C° 0 mm 2 mps 725 mmHg 47%
    10:00 +28°C° 0 mm 2 mps 725 mmHg 43%
    11:00 +29°C° 0 mm 3 mps 725 mmHg 39%
    12:00 +30°C° 0 mm 2 mps 725 mmHg 36%
    13:00 +31°C° 0 mm 2 mps 725 mmHg 33%
    14:00 +32°C° 0 mm 2 mps 725 mmHg 30%
    15:00 +32°C° 0 mm 2 mps 724 mmHg 33%
    16:00 +31°C° 0 mm 2 mps 724 mmHg 36%
    17:00 +30°C° 0 mm 1 mps 724 mmHg 39%
    18:00 +29°C° 0 mm 1 mps 724 mmHg 43%
    19:00 +27°C° 0 mm 1 mps 724 mmHg 47%
    20:00 +25°C° 0 mm 1 mps 724 mmHg 51%
    21:00 +25°C° 0 mm 1 mps 724 mmHg 54%
    22:00 +24°C° 0 mm 1 mps 724 mmHg 56%
    23:00 +23°C° 0 mm 1 mps 724 mmHg 59%

    28 May, Thursday

    Time Temperature Precipitation Wind Pressure Humidity
    00:00 +22°C° 0 mm 1 mps 724 mmHg 60%
    01:00 +22°C° 0 mm 1 mps 724 mmHg 62%
    02:00 +22°C° 0 mm 1 mps 724 mmHg 63%
    03:00 +22°C° 0 mm 1 mps 724 mmHg 64%
    04:00 +21°C° 0 mm 1 mps 724 mmHg 66%
    05:00 +21°C° 0 mm 1 mps 724 mmHg 67%
    06:00 +24°C° 0 mm 1 mps 724 mmHg 60%
    07:00 +26°C° 0 mm 1 mps 724 mmHg 53%
    08:00 +28°C° 0 mm 1 mps 725 mmHg 46%
    09:00 +30°C° 0 mm 1 mps 725 mmHg 41%
    10:00 +32°C° 0 mm 1 mps 725 mmHg 37%
    11:00 +34°C° 0 mm 1 mps 725 mmHg 32%
    12:00 +33°C° 0 mm 1 mps 724 mmHg 34%
    13:00 +32°C° 0 mm 1 mps 724 mmHg 35%
    14:00 +31°C° 0 mm 1 mps 723 mmHg 36%
    15:00 +30°C° 0.1 mm 2 mps 723 mmHg 43%
    16:00 +28°C° 0.1 mm 2 mps 723 mmHg 50%
    17:00 +27°C° 0.1 mm 2 mps 723 mmHg 56%
    18:00 +26°C° 0 mm 2 mps 723 mmHg 59%
    19:00 +25°C° 0 mm 1 mps 723 mmHg 61%
    20:00 +24°C° 0 mm 1 mps 723 mmHg 64%
    21:00 +23°C° 0 mm 1 mps 723 mmHg 65%
    22:00 +20°C° 0 mm 0 mps 723 mmHg 66%
    23:00 +20°C° 0 mm 0 mps 723 mmHg 67%

    29 May, Friday

    Time Temperature Precipitation Wind Pressure Humidity
    00:00 +20°C° 0 mm 0 mps 723 mmHg 67%
    01:00 +19°C° 0 mm 0 mps 722 mmHg 68%
    02:00 +19°C° 0 mm 0 mps 722 mmHg 68%
    03:00 +19°C° 0 mm 0 mps 722 mmHg 69%
    04:00 +19°C° 0 mm 0 mps 722 mmHg 69%
    05:00 +19°C° 0 mm 0 mps 722 mmHg 69%
    06:00 +22°C° 0 mm 0 mps 722 mmHg 62%
    07:00 +24°C° 0 mm 0 mps 723 mmHg 54%
    08:00 +27°C° 0 mm 0 mps 723 mmHg 47%
    09:00 +30°C° 0 mm 1 mps 723 mmHg 42%
    10:00 +31°C° 0 mm 1 mps 723 mmHg 38%
    11:00 +32°C° 0 mm 2 mps 722 mmHg 33%
    12:00 +33°C° 0 mm 3 mps 722 mmHg 34%
    13:00 +33°C° 0 mm 3 mps 722 mmHg 34%
    14:00 +33°C° 0 mm 4 mps 721 mmHg 34%
    15:00 +32°C° 0 mm 4 mps 721 mmHg 37%
    16:00 +30°C° 0 mm 3 mps 721 mmHg 41%
    17:00 +29°C° 0 mm 3 mps 721 mmHg 44%
    18:00 +27°C° 0 mm 2 mps 721 mmHg 51%
    19:00 +25°C° 0 mm 2 mps 721 mmHg 58%
    20:00 +23°C° 0 mm 1 mps 722 mmHg 65%
    21:00 +22°C° 0 mm 1 mps 721 mmHg 67%
    22:00 +21°C° 0 mm 1 mps 721 mmHg 69%
    23:00 +19°C° 0 mm 0 mps 721 mmHg 71%

    30 May, Saturday

    Time Temperature Precipitation Wind Pressure Humidity
    00:00 +18°C° 0 mm 0 mps 721 mmHg 73%
    01:00 +20°C° 0 mm 1 mps 721 mmHg 74%
    02:00 +20°C° 0 mm 1 mps 720 mmHg 76%
    03:00 +20°C° 0 mm 1 mps 720 mmHg 76%
    04:00 +20°C° 0 mm 1 mps 720 mmHg 77%
    05:00 +20°C° 0 mm 1 mps 720 mmHg 77%
    06:00 +22°C° 0 mm 1 mps 720 mmHg 70%
    07:00 +25°C° 0 mm 1 mps 721 mmHg 62%
    08:00 +27°C° 0 mm 1 mps 721 mmHg 55%
    09:00 +28°C° 0 mm 1 mps 721 mmHg 49%
    10:00 +30°C° 0 mm 1 mps 721 mmHg 43%
    11:00 +32°C° 0 mm 1 mps 721 mmHg 36%
    12:00 +32°C° 0 mm 1 mps 721 mmHg 35%
    13:00 +32°C° 0 mm 2 mps 720 mmHg 34%
    14:00 +32°C° 0 mm 2 mps 720 mmHg 32%
    15:00 +31°C° 0 mm 2 mps 720 mmHg 38%
    16:00 +30°C° 0 mm 2 mps 720 mmHg 43%
    17:00 +28°C° 0 mm 2 mps 719 mmHg 49%
    18:00 +26°C° 0 mm 2 mps 719 mmHg 56%
    19:00 +24°C° 0 mm 1 mps 720 mmHg 63%
    20:00 +22°C° 0 mm 1 mps 720 mmHg 70%
    21:00 +22°C° 0 mm 1 mps 720 mmHg 71%
    22:00 +19°C° 0 mm 0 mps 719 mmHg 71%
    23:00 +19°C° 0 mm 0 mps 719 mmHg 72%
    Show more